DW0465 Weather Reports


Display with metric or nautical units.
time (UTC)temp
F
wind
direction
speed
MPH
gust
MPH
rain 1hr
in
rain 24hr
in
rain mn
in
humidity
%
barometer
mb
20260904041530 60 188 0.0 0.0 0.00 0.00 0.00 38 1003.3
20260904040027 60 186 0.0 0.0 0.00 0.00 0.00 39 1003.3
20260904034526 60 214 0.0 2.0 0.00 0.00 0.00 40 1003.3
20260904033026 61 238 0.0 5.0 0.00 0.00 0.00 38 1003.1
20260904031526 62 166 0.0 0.0 0.00 0.00 0.00 34 1003.1
20260904030025 63 220 0.0 0.0 0.00 0.00 0.00 32 1002.9
20260904024525 63 162 0.0 0.0 0.00 0.00 0.00 29 1002.9
20260904023025 63 73 0.0 0.0 0.00 0.00 0.00 37 1002.3
20260904021526 65 5 0.0 0.0 0.00 0.00 0.00 43 1002.0
20260904020024 67 5 0.0 0.0 0.00 0.00 0.00 37 1001.8
20260904014525 69 5 0.0 0.0 0.00 0.00 0.00 29 1001.7
20260904013030 71 5 0.0 0.0 0.00 0.00 0.00 34 1001.5
20260904011533 75 250 0.0 0.0 0.00 0.00 0.00 23 1001.6
20260904010038 78 251 0.0 0.0 0.00 0.00 0.00 21 1001.6
20260904004520 78 254 0.0 0.0 0.00 0.00 0.00 19 1001.5
20260904003019 79 234 0.0 0.0 0.00 0.00 0.00 21 1001.4
20260904001520 79 231 0.0 1.0 0.00 0.00 0.00 19 1001.5
20260904000020 80 261 0.0 1.0 0.00 0.00 0.00 20 1001.5
20260903234517 80 209 0.0 0.0 0.00 0.00 0.00 17 1001.5
20260903233015 80 223 0.0 2.0 0.00 0.00 0.00 19 1001.7
20260903231516 79 239 0.0 4.0 0.00 0.00 0.00 17 1001.7
20260903230018 79 261 0.0 7.0 0.00 0.00 0.00 18 1001.9
20260903224522 79 211 0.0 2.0 0.00 0.00 0.00 18 1001.9
20260903223012 79 254 0.0 5.0 0.00 0.00 0.00 18 1002.1
20260903221512 79 237 0.0 5.0 0.00 0.00 0.00 18 1002.0
20260903220016 79 263 0.0 7.0 0.00 0.00 0.00 19 1002.2
20260903214507 79 152 0.0 2.0 0.00 0.00 0.00 17 1002.4
20260903213011 78 67 0.0 0.0 0.00 0.00 0.00 15 1002.4
20260903211506 77 107 0.0 1.0 0.00 0.00 0.00 16 1002.3
20260903210003 77 22 0.0 0.0 0.00 0.00 0.00 20 1002.3
20260903204504 77 12 0.0 0.0 0.00 0.00 0.00 17 1002.5
20260903203001 77 16 0.0 1.0 0.00 0.00 0.00 17 1002.6
20260903201601 77 99 0.0 4.0 0.00 0.00 0.00 15 1002.7
20260903200059 77 217 0.0 1.0 0.00 0.00 0.00 16 1002.7
20260903194558 77 195 0.0 2.0 0.00 0.00 0.00 17 1003.0
20260903193057 76 303 0.0 1.0 0.00 0.00 0.00 15 1002.9
20260903191556 76 165 0.0 1.0 0.00 0.00 0.00 20 1003.1
20260903190058 77 236 0.0 4.0 0.00 0.00 0.00 20 1003.3
20260903184601 76 205 0.0 3.0 0.00 0.00 0.00 20 1003.4
20260903183049 75 144 0.0 3.0 0.00 0.00 0.00 16 1003.7
20260903181547 75 183 0.0 0.0 0.00 0.00 0.00 17 1003.7
20260903180048 74 117 0.0 1.0 0.00 0.00 0.00 17 1003.7
20260903174558 74 212 0.0 0.0 0.00 0.00 0.00 18 1003.9
20260903173040 74 230 0.0 3.0 0.00 0.00 0.00 23 1004.1
20260903171535 73 204 0.0 3.0 0.00 0.00 0.00 19 1003.9
20260903170042 72 182 0.0 1.0 0.00 0.00 0.00 21 1003.9
20260903164528 70 76 0.0 1.0 0.00 0.00 0.00 22 1003.8
20260903163023 69 28 0.0 0.0 0.00 0.00 0.00 29 1003.9
20260903161523 68 66 0.0 0.0 0.00 0.00 0.00 36 1003.9
20260903160015 67 185 0.0 0.0 0.00 0.00 0.00 31 1003.9
20260903154511 65 210 0.0 0.0 0.00 0.00 0.00 31 1004.0
20260903153006 63 200 0.0 0.0 0.00 0.00 0.00 35 1003.9
20260903151505 62 199 0.0 0.0 0.00 0.00 0.00 36 1003.9
20260903150113 60 207 0.0 0.0 0.00 0.00 0.00 37 1004.0
20260903144554 57 188 0.0 1.0 0.00 0.00 0.00 41 1004.1
20260903143050 55 232 0.0 1.0 0.00 0.00 0.00 45 1004.3
20260903141548 52 192 0.0 3.0 0.00 0.00 0.00 48 1004.2
20260903140042 49 226 0.0 3.0 0.00 0.00 0.00 52 1004.0
20260903134538 49 231 0.0 2.0 0.00 0.00 0.00 52 1003.7
20260903133047 49 207 0.0 1.0 0.00 0.00 0.00 50 1003.5
20260903131535 48 188 0.0 3.0 0.00 0.00 0.00 52 1003.5
20260903130033 48 213 0.0 2.0 0.00 0.00 0.00 55 1003.1
20260903124528 48 236 0.0 2.0 0.00 0.00 0.00 56 1002.9
20260903123029 48 218 0.0 1.0 0.00 0.00 0.00 54 1002.4
20260903121522 50 249 0.0 0.0 0.00 0.00 0.00 52 1002.2
20260903120026 51 231 0.0 2.0 0.00 0.00 0.00 49 1002.1
20260903114518 51 223 0.0 2.0 0.00 0.00 0.00 49 1002.2
20260903113015 53 203 0.0 2.0 0.00 0.00 0.00 47 1002.2
20260903111520 55 146 0.0 1.0 0.00 0.00 0.00 45 1002.3
20260903110014 55 169 0.0 1.0 0.00 0.00 0.00 42 1002.2
20260903104515 55 202 0.0 3.0 0.00 0.00 0.00 41 1002.3
20260903103011 54 192 0.0 2.0 0.00 0.00 0.00 42 1002.3
20260903101510 54 226 0.0 3.0 0.00 0.00 0.00 44 1002.1
20260903100010 54 218 0.0 3.0 0.00 0.00 0.00 44 1002.1
20260903094508 53 209 0.0 0.0 0.00 0.00 0.00 46 1002.0
20260903093015 53 223 0.0 0.0 0.00 0.00 0.00 47 1002.0
20260903091511 53 228 0.0 0.0 0.00 0.00 0.00 49 1002.1
20260903090006 53 222 0.0 0.0 0.00 0.00 0.00 48 1002.1
20260903084507 53 216 0.0 4.0 0.00 0.00 0.00 48 1002.1
20260903083006 53 238 0.0 2.0 0.00 0.00 0.00 47 1002.3
20260903081503 53 201 0.0 2.0 0.00 0.00 0.00 46 1002.2
20260903080002 53 195 0.0 2.0 0.00 0.00 0.00 47 1001.9
20260903074502 53 225 0.0 4.0 0.00 0.00 0.00 48 1001.9
20260903073108 53 209 0.0 1.0 0.00 0.00 0.00 49 1001.9
20260903071603 54 214 0.0 0.0 0.00 0.00 0.00 47 1002.0
20260903070054 55 221 0.0 0.0 0.00 0.00 0.00 47 1001.9
20260903064551 56 181 0.0 0.0 0.00 0.00 0.00 45 1001.7
20260903063054 56 185 0.0 0.0 0.00 0.00 0.00 43 1001.8
20260903061600 56 198 0.0 1.0 0.00 0.00 0.00 44 1001.9
20260903060046 55 211 0.0 2.0 0.00 0.00 0.00 46 1001.8
20260903054545 55 218 0.0 1.0 0.00 0.00 0.00 49 1001.7
20260903053058 55 225 0.0 2.0 0.00 0.00 0.00 51 1001.7
20260903051543 55 279 0.0 0.0 0.00 0.00 0.00 53 1001.8
20260903050041 56 210 0.0 0.0 0.00 0.00 0.00 51 1001.5
20260903044540 54 227 0.0 0.0 0.00 0.00 0.00 57 1002.0
20260903043042 55 240 0.0 0.0 0.00 0.00 0.00 59 1001.8